EW7246 Weather Reports


time (UTC)temp
C
wind
direction
speed
KPH
gust
KPH
rain 1hr
cm
rain 24hr
cm
rain mn
cm
humidity
%
barometer
mb
20260507160058 15 360 19.3 27.4 0.00 0.00 0.00 43 1010.3
20260507154536 14 360 20.9 30.6 0.00 0.00 0.00 46 1010.3
20260507153033 13 360 19.3 32.2 0.00 0.00 0.00 48 1010.5
20260507151527 13 360 19.3 27.4 0.00 0.00 0.00 50 1010.5
20260507150027 12 360 19.3 27.4 0.00 0.00 0.00 52 1010.6
20260507144528 11 360 19.3 25.7 0.00 0.00 0.00 55 1010.5
20260507143014 10 360 19.3 29.0 0.00 0.00 0.00 57 1010.5
20260507141512 10 360 20.9 30.6 0.00 0.00 0.00 57 1010.5
20260507140009 9 360 20.9 32.2 0.00 0.00 0.00 61 1010.6
20260507134504 8 360 17.7 24.1 0.00 0.00 0.00 65 1010.5
20260507133108 7 360 14.5 24.1 0.00 0.00 0.00 70 1010.5
20260507131557 6 360 9.7 19.3 0.00 0.00 0.00 72 1010.4
20260507130050 5 360 6.4 17.7 0.00 0.00 0.00 76 1010.5
20260507124546 5 360 9.7 19.3 0.00 0.00 0.00 79 1010.5
20260507123045 3 360 8.0 14.5 0.00 0.00 0.00 80 1010.2
20260507121539 3 360 11.3 17.7 0.00 0.00 0.00 81 1010.3
20260507120035 3 360 3.2 9.7 0.00 0.00 0.00 79 1010.3
20260507114533 3 360 6.4 14.5 0.00 0.00 0.00 79 1010.3
20260507113031 3 360 8.0 16.1 0.00 0.00 0.00 79 1010.3
20260507111536 3 360 9.7 14.5 0.00 0.00 0.00 79 1010.4
20260507110032 3 360 8.0 14.5 0.00 0.00 0.00 79 1010.7
20260507104529 3 360 4.8 8.0 0.00 0.00 0.00 76 1010.8
20260507103026 3 360 3.2 6.4 0.00 0.00 0.00 76 1010.9
20260507101522 3 360 4.8 14.5 0.00 0.00 0.00 76 1011.0
20260507100023 3 360 8.0 14.5 0.00 0.00 0.00 75 1011.1
20260507094523 3 360 4.8 9.7 0.00 0.00 0.00 75 1011.1
20260507093017 3 360 6.4 16.1 0.00 0.00 0.00 75 1011.2
20260507091515 3 360 11.3 19.3 0.00 0.00 0.00 74 1011.3
20260507090014 4 360 14.5 29.0 0.00 0.00 0.00 74 1011.3
20260507084515 4 360 17.7 27.4 0.00 0.00 0.00 73 1011.4
20260507083010 4 360 24.1 35.4 0.00 0.00 0.00 72 1011.3
20260507081522 5 360 22.5 37.0 0.00 0.00 0.00 73 1011.5
20260507080011 4 360 24.1 35.4 0.00 0.00 0.00 74 1011.8
20260507074504 4 360 20.9 35.4 0.00 0.00 0.00 74 1012.1
20260507073100 4 360 19.3 33.8 0.00 0.00 0.00 73 1012.5
20260507071604 5 360 20.9 32.2 0.00 0.00 0.00 72 1012.8
20260507070056 5 360 20.9 35.4 0.00 0.00 0.00 71 1012.8
20260507064607 5 360 22.5 32.2 0.00 0.00 0.00 70 1012.7
20260507063053 5 360 22.5 30.6 0.00 0.00 0.00 69 1012.9
20260507061545 5 360 19.3 32.2 0.00 0.00 0.00 69 1013.1
20260507060040 5 360 16.1 27.4 0.00 0.00 0.00 68 1013.2
20260507054541 5 360 14.5 25.7 0.00 0.00 0.00 67 1013.2
20260507053036 6 360 16.1 24.1 0.00 0.00 0.00 66 1013.6
20260507051535 6 360 16.1 30.6 0.00 0.00 0.00 64 1013.7
20260507050039 6 360 20.9 29.0 0.00 0.00 0.00 63 1013.8
20260507044534 6 360 17.7 25.7 0.00 0.00 0.00 62 1013.9
20260507043030 6 360 16.1 27.4 0.00 0.00 0.00 61 1014.2
20260507041546 7 360 19.3 30.6 0.00 0.00 0.00 60 1014.3
20260507040028 6 360 19.3 29.0 0.00 0.00 0.00 60 1014.5
20260507034527 6 360 12.9 19.3 0.00 0.00 0.00 61 1014.8
20260507033031 7 360 14.5 19.3 0.00 0.00 0.00 59 1014.8
20260507031526 7 360 12.9 22.5 0.00 0.00 0.00 58 1014.8
20260507030025 7 360 14.5 19.3 0.00 0.00 0.00 57 1014.8
20260507024524 7 360 11.3 16.1 0.00 0.00 0.00 54 1014.7
20260507023025 8 360 9.7 16.1 0.00 0.00 0.00 52 1014.8
20260507021523 9 360 8.0 12.9 0.00 0.00 0.00 48 1014.7
20260507020027 10 360 9.7 17.7 0.00 0.00 0.00 44 1014.6
20260507014544 10 360 9.7 20.9 0.00 0.00 0.00 42 1014.6
20260507013038 11 360 12.9 17.7 0.00 0.00 0.00 40 1014.6
20260507011532 11 360 9.7 16.1 0.00 0.00 0.00 40 1014.7
20260507010019 11 360 14.5 20.9 0.00 0.00 0.00 37 1014.7
20260507004520 12 360 12.9 20.9 0.00 0.00 0.00 37 1014.8
20260507003017 12 360 9.7 17.7 0.00 0.00 0.00 34 1014.9
20260507001514 12 360 11.3 19.3 0.00 0.00 0.00 34 1015.2
20260507000023 12 360 17.7 27.4 0.00 0.00 0.00 33 1015.3
20260506234512 12 360 12.9 19.3 0.00 0.00 0.00 34 1015.4
20260506233011 12 360 14.5 22.5 0.00 0.00 0.00 35 1015.5
20260506231509 12 360 12.9 24.1 0.00 0.00 0.00 34 1015.6
20260506230008 12 360 11.3 19.3 0.00 0.00 0.00 34 1015.6
20260506224508 12 360 12.9 22.5 0.00 0.00 0.00 35 1015.7
20260506223008 12 360 11.3 22.5 0.00 0.00 0.00 33 1015.9
20260506221504 12 360 19.3 27.4 0.00 0.00 0.00 32 1016.1
20260506220004 12 360 16.1 27.4 0.00 0.00 0.00 33 1016.3
20260506214502 12 360 16.1 27.4 0.00 0.00 0.00 31 1016.5
20260506213059 12 360 16.1 30.6 0.00 0.00 0.00 32 1016.7
20260506211559 12 360 19.3 29.0 0.00 0.00 0.00 33 1017.0
20260506210111 12 360 17.7 32.2 0.00 0.00 0.00 35 1017.4
20260506204554 12 360 12.9 30.6 0.00 0.00 0.00 36 1017.6
20260506203055 11 360 12.9 29.0 0.00 0.00 0.00 36 1017.8
20260506201551 11 360 17.7 29.0 0.00 0.00 0.00 34 1017.8
20260506200125 11 360 14.5 38.6 0.00 0.00 0.00 35 1018.1
20260506194547 11 360 12.9 25.7 0.00 0.00 0.00 32 1018.1
20260506193046 11 360 16.1 25.7 0.00 0.00 0.00 36 1018.2
20260506191547 11 360 16.1 25.7 0.00 0.00 0.00 36 1018.4
20260506190045 11 360 8.0 25.7 0.00 0.00 0.00 39 1018.6
20260506184541 11 360 12.9 17.7 0.00 0.00 0.00 39 1018.7
20260506183039 11 360 9.7 17.7 0.00 0.00 0.00 41 1018.9
20260506181539 11 360 6.4 20.9 0.00 0.00 0.00 45 1019.0
20260506180045 10 360 12.9 19.3 0.00 0.00 0.00 44 1019.3
20260506174533 9 360 3.2 12.9 0.00 0.00 0.00 44 1019.5
20260506173032 9 360 6.4 16.1 0.00 0.00 0.00 45 1019.6
20260506171545 9 360 4.8 16.1 0.00 0.00 0.00 44 1019.6
20260506170028 10 360 9.7 16.1 0.00 0.00 0.00 46 1019.5
20260506164526 9 360 8.0 19.3 0.00 0.00 0.00 48 1019.5
20260506163025 8 360 1.6 14.5 0.00 0.00 0.00 50 1019.5
20260506161529 8 360 8.0 16.1 0.00 0.00 0.00 51 1019.6